"Pseudo-MPEC" for P10RulM

Created 2019 Sep 12 12:07:21 UT using Find_Orb

Click here for an explanation of pseudo-MPECs

 
 Astrometry: 
     P10RulM  C2019 09 05.33313 23 24 22.18 -02 46 53.1    ~9BHb 21.8 GVNEOCPG96
     P10RulM  C2019 09 05.33829 23 24 21.84 -02 47 00.7    ~9BHb 22.1 GVNEOCPG96
     P10RulM  C2019 09 05.34343 23 24 21.63 -02 47 07.4    ~9BHb 22.2 GVNEOCPG96
     P10RulM  C2019 09 05.34859 23 24 21.25 -02 47 15.6    ~9BHb 22.1 GVNEOCPG96
     P10RulM  C2019 09 06X[#DK8opAL8fbc#se\AstrometryYi9`C9r.w$;:\AP_?!R5LM;9F51
     P10RulM  C2019 09 06W[pPF,/redacted;jFI39vuj6+\15vQjN@pU[hHlI?BJK+nK/[+VF51
     P10RulM  C2019 09 06/+lnA#]=.MENxcfIUjhQnm]b?lC7QyF\En#QA1Yf9WAWCj2g2[%UF51
     P10RulM KC2019 09 07CxG@6x?\4d+7A\2R;SErtpi]P-?/b.c]D;VZOAe@Sn=`mclickjZH21
     P10RulM KC2019 09 07p`R_w(lherepk.3yqpw2L2;GQ[cSh1KN%;bOU:4RvZIhh\A9,s%2H21
     P10RulM KC2019 09 07+@46UQDD=orvd5K?O9qstH;VCfor.3)!-q8b6,?+YexplanationH21

Station data:
(F51) Pan-STARRS 1, Haleakala  (N20.707235 W156.255910)  US/Hawaii.
   Observers N. Primak, A. Schultz, S. Watters, J. Thiel, T. Goggia. Measurer
   PS1 Science Consortium. 1.8-m Ritchey-Chrétien + CCD.
(G96) Mt. Lemmon Survey  (N32.442754 W110.788720)  US/Arizona.  Observers T.
   A. Pruyne, B. M. Africano, E. J. Christensen, G. A. Farneth, D. C. Fuls,
   A. R. Gibbs, A. D. Grauer, H. Groeller, J. A. Johnson, R. A. Kowalski, S.
   M. Larson, G. J. Leonard, D. Rankin, R. L. Seaman, F. C. Shelly. 1.5-m
   reflector + 10K CCD.
(H21) Astronomical Research Observatory, Westfield  (N39.483057 W87.968270)
   US/Illinois. 0.76-m f/3.0 astrograph + CCD.

Orbital elements:  P10RulM
   Perihelion 2018 Nov 6.881306 +/- 229 TT = 21:09:04 (JD 2458429.381306)
Epoch 2019 Sep  7.0 TT = JDT 2458733.5   Earth MOID: 0.7279   Ma: 0.0663
M 123.14391243 +/- 70               (J2000 ecliptic)          AutoNEOCP
n   0.40492056 +/- 0.0823           Peri.   50.42219 +/- 60
a   1.80948989 +/- 0.244            Node   167.32728 +/- 0.43
e   0.0633108 +/- 0.0255            Incl.   21.31213 +/- 11
P   2.43/889.05d           H 21.0   G  0.15   U 11.1  
q 1.69492954 +/- 0.259    Q 1.92405023 +/- 0.209
From 10 observations 2019 Sept. 5-7 (47.8 hr); mean residual 0".31
Residuals in arcseconds: 
190905 G96  .32+  .36-    190906 F51  .09-  .03+    190907 H21  .18+  .00     
190905 G96  .43-  .31-    190906 F51  .05+  .01-    190907 H21  .10+  .08+    
190905 G96  .75+  .60+    190906 F51  .06-  .03+    
190905 G96  .60-  .05+    190907 H21  .23-  .11-    

Ephemerides (geocentric):
Date (UTC) HH   RA              Dec         delta   r     elong  mag " sig PA
---- -- -- --  -------------   -----------  ------ ------ -----  --- ---- ---
2019 09 12 12  23 17 55.886   -05 44 51.41  .87403 1.8804 178.4 22.2 41.5  13
2019 09 12 13  23 17 53.620   -05 45 53.28  .87408 1.8804 178.4 22.2 42.2  13
2019 09 12 14  23 17 51.355   -05 46 55.14  .87412 1.8804 178.3 22.2 42.8  13
2019 09 12 15  23 17 49.090   -05 47 56.98  .87417 1.8804 178.3 22.2 43.5  13
2019 09 12 16  23 17 46.825   -05 48 58.82  .87422 1.8805 178.2 22.2 44.2  14
2019 09 12 17  23 17 44.561   -05 50 00.65  .87427 1.8805 178.2 22.2 44.9  14
2019 09 12 18  23 17 42.296   -05 51 02.47  .87432 1.8805 178.1 22.2 45.6  14
2019 09 12 19  23 17 40.032   -05 52 04.28  .87437 1.8805 178.1 22.2 46.3  14
2019 09 12 20  23 17 37.768   -05 53 06.07  .87442 1.8806 178.0 22.2 47.0  14
2019 09 12 21  23 17 35.505   -05 54 07.86  .87447 1.8806 178.0 22.2 47.7  14
2019 09 12 22  23 17 33.241   -05 55 09.63  .87452 1.8806 177.9 22.2 48.4  14
2019 09 12 23  23 17 30.978   -05 56 11.40  .87458 1.8806 177.9 22.2 49.2  14
2019 09 13 00  23 17 28.715   -05 57 13.15  .87463 1.8807 177.8 22.2 49.9  14
2019 09 13 01  23 17 26.452   -05 58 14.89  .87468 1.8807 177.8 22.2 50.7  14
2019 09 13 02  23 17 24.190   -05 59 16.62  .87474 1.8807 177.7 22.2 51.4  14
2019 09 13 03  23 17 21.928   -06 00 18.34  .87479 1.8807 177.7 22.2 52.2  15
2019 09 13 04  23 17 19.666   -06 01 20.04  .87484 1.8808 177.6 22.2 52.9  15
2019 09 13 05  23 17 17.405   -06 02 21.74  .87490 1.8808 177.6 22.2 53.7  15
2019 09 13 06  23 17 15.144   -06 03 23.42  .87495 1.8808 177.5 22.2 54.5  15
2019 09 13 07  23 17 12.883   -06 04 25.09  .87501 1.8808 177.5 22.2 55.3  15
2019 09 13 08  23 17 10.622   -06 05 26.75  .87507 1.8809 177.4 22.2 56.1  15
2019 09 13 09  23 17 08.362   -06 06 28.39  .87512 1.8809 177.3 22.2 56.9  15
2019 09 13 10  23 17 06.102   -06 07 30.03  .87518 1.8809 177.3 22.2 57.7  15
2019 09 13 11  23 17 03.842   -06 08 31.65  .87524 1.8810 177.2 22.2 58.5  15
2019 09 13 12  23 17 01.583   -06 09 33.25  .87530 1.8810 177.2 22.2 59.3  15
2019 09 13 13  23 16 59.324   -06 10 34.85  .87535 1.8810 177.1 22.2 60.2  15
2019 09 13 14  23 16 57.066   -06 11 36.43  .87541 1.8810 177.1 22.2 61.0  15
2019 09 13 15  23 16 54.808   -06 12 38.00  .87547 1.8811 177.0 22.2 61.8  15
2019 09 13 16  23 16 52.550   -06 13 39.55  .87553 1.8811 177.0 22.2 62.7  16
2019 09 13 17  23 16 50.293   -06 14 41.10  .87559 1.8811 176.9 22.2 63.6  16
2019 09 13 18  23 16 48.036   -06 15 42.63  .87565 1.8811 176.9 22.2 64.4  16
2019 09 13 19  23 16 45.779   -06 16 44.14  .87571 1.8812 176.8 22.3 65.3  16
2019 09 13 20  23 16 43.523   -06 17 45.64  .87578 1.8812 176.7 22.3 66.2  16
2019 09 13 21  23 16 41.268   -06 18 47.13  .87584 1.8812 176.7 22.3 67.1  16
2019 09 13 22  23 16 39.012   -06 19 48.60  .87590 1.8812 176.6 22.3 68.0  16
2019 09 13 23  23 16 36.757   -06 20 50.06  .87596 1.8813 176.6 22.3 68.9  16
2019 09 14 00  23 16 34.503   -06 21 51.51  .87603 1.8813 176.5 22.3 69.8  16
2019 09 14 01  23 16 32.249   -06 22 52.94  .87609 1.8813 176.5 22.3 70.7  16
2019 09 14 02  23 16 29.996   -06 23 54.36  .87616 1.8813 176.4 22.3 71.7  16
2019 09 14 03  23 16 27.742   -06 24 55.76  .87622 1.8814 176.4 22.3 72.6  16
2019 09 14 04  23 16 25.490   -06 25 57.15  .87629 1.8814 176.3 22.3 73.5  16
2019 09 14 05  23 16 23.238   -06 26 58.52  .87635 1.8814 176.2 22.3 74.5  17
2019 09 14 06  23 16 20.986   -06 27 59.88  .87642 1.8814 176.2 22.3 75.4  17
2019 09 14 07  23 16 18.735   -06 29 01.23  .87649 1.8815 176.1 22.3 76.4  17
2019 09 14 08  23 16 16.484   -06 30 02.55  .87655 1.8815 176.1 22.3 77.4  17
2019 09 14 09  23 16 14.234   -06 31 03.87  .87662 1.8815 176.0 22.3 78.4  17
2019 09 14 10  23 16 11.984   -06 32 05.17  .87669 1.8815 176.0 22.3 79.4  17
2019 09 14 11  23 16 09.735   -06 33 06.45  .87676 1.8816 175.9 22.3 80.4  17